Regional Weather Roundup
Issued by NWS

Home | Current Version | Previous Version | Graphics & Text | Print | Product List | Glossary On
Versions: 1 2 3 4 5 6 7 8 9 10 11 12 13 14 15 16 17 18 19 20 21 22 23 24 25 26 27 28 29 30 31 32 33 34 35 36 37 38 39 40 41 42 43 44 45 46 47 48 49 50
120
ASUS43 KFSD 260510
RWRSD

WEATHER ROUNDUP FOR SOUTH DAKOTA
NATIONAL WEATHER SERVICE SIOUX FALLS SD
1200 AM CDT MON SEP 26 2016

NOTE: "FAIR" INDICATES FEW OR NO CLOUDS BELOW 12,000 FEET WITH NO
SIGNIFICANT WEATHER AND/OR OBSTRUCTIONS TO VISIBILITY.


SDZ001>005-009-010-012>017-260600-
NORTHWEST AND NORTH CENTRAL SOUTH DAKOTA

CITY           SKY/WX    TMP DP  RH WIND       PRES   REMARKS
BUFFALO          N/A     46  37  71 W8        30.21F
MOBRIDGE       CLEAR     47  36  65 W6        30.18F
$$

SDZ012>016-024>037-041>051-057-063-072>074-260600-
SOUTHWEST AND SOUTH CENTRAL SOUTH DAKOTA

CITY           SKY/WX    TMP DP  RH WIND       PRES   REMARKS
RAPID CTY ARPT CLEAR     45  34  65 W6        30.32S
PIERRE         CLEAR     49  37  63 W7        30.22F
CUSTER         CLEAR     40  27  59 N5        30.39R
ELLSWORTH AFB  CLEAR     43  34  71 W8        30.31S
PHILIP         CLEAR     41  34  76 W7        30.28F
PINE RIDGE     CLEAR     35  29  78 NW3       30.34F
WINNER         FAIR      50  33  52 W9        30.27S
$$

SDZ004>011-016>023-039-040-260600-
NORTHEAST SOUTH DAKOTA

CITY           SKY/WX    TMP DP  RH WIND       PRES   REMARKS
ABERDEEN       CLEAR     48  35  60 W7        30.14S
WATERTOWN      CLEAR     52  36  54 W12       30.11F
BROOKINGS      CLEAR     50  37  61 W12       30.13F
SISSETON         N/A     54  36  50 NW17      30.05S
$$

SDZ017-020-022-023-036>040-048>070-260600-
SOUTHEAST SOUTH DAKOTA

CITY           SKY/WX    TMP DP  RH WIND       PRES   REMARKS
SIOUX FALLS    PTCLDY    49  39  68 W8        30.16F
HURON          CLEAR     48  33  56 W10       30.17F
CHAMBERLAIN    CLEAR     49  34  55 NW5       30.24F
MITCHELL       CLEAR     50  33  52 W10       30.20F
YANKTON        CLEAR     54  34  47 W12       30.21S
$$

ABBREVIATIONS USED IN REMARKS
   TC - TEMPERATURE IN CELSIUS
  WCI - WIND CHILL INDEX
   HX - HEAT INDEX
  VSB - VISIBILITY





USA.gov is the U.S. government's official web portal to all federal, state and local government web resources and services.